Regional Weather Roundup
Issued by NWS Little Rock, AR

Home | Current Version | Previous Version | Graphics & Text | Print | Product List | Glossary On
Versions: 1 2 3 4 5 6 7 8 9 10 11 12 13 14 15 16 17 18 19 20 21 22 23 24 25 26 27 28 29 30 31 32 33
000
ASUS44 KLZK 162305
RWRLZK

WEATHER ROUNDUP FOR ARKANSAS
NATIONAL WEATHER SERVICE LITTLE ROCK AR
500 PM CST TUE JAN 16 2018

NOTE: "FAIR" INDICATES FEW OR NO CLOUDS BELOW 12,000 FEET WITH NO
SIGNIFICANT WEATHER AND/OR OBSTRUCTIONS TO VISIBILITY.

ARZ001-003-010-029-170000-
NORTHWEST ARKANSAS

CITY           SKY/WX    TMP DP  RH WIND       PRES   REMARKS
FAYETTEVILLE   CLEAR     10  -2  58 NW10      30.67S WCI  -4
FORT SMITH     CLEAR     19  -3  38 N14       30.73S WCI   6
HARRISON       CLEAR      7  -3  64 NW14G22   30.63F WCI -10
BENTONVILLE    CLEAR      9  -2  61 N8        30.70R WCI  -3
ROGERS         CLEAR      8  -2  63 NW9       30.67S WCI  -5
SILOAM SPGS    CLEAR      8  -1  66 N13       30.70S WCI  -8
HIGHFILL       CLEAR      8  -2  63 NW8       30.68S WCI  -4
SPRINGDALE     CLEAR     10  -2  56 NW13      30.67F WCI  -5
$$

ARZ004-005-016-170000-
NORTH CENTRAL ARKANSAS

CITY           SKY/WX    TMP DP  RH WIND       PRES   REMARKS
BATESVILLE     PTCLDY    15   0  51 NW6       30.68R WCI   6
FLIPPIN        CLEAR     12   0  58 NW10G16   30.70R WCI  -1
MTN HOME       CLEAR     10  -1  61 N8        30.66R WCI  -2
$$

ARZ040-041-170000-
WEST CENTRAL ARKANSAS

CITY           SKY/WX    TMP DP  RH WIND       PRES   REMARKS
MENA           PTCLDY    21   0  39 N6        30.65R WCI  14
MOUNT IDA      CLEAR     20  -2  38 N5        30.63R WCI  13
$$

ARZ009-017-025-026-028-170000-
NORTHEAST ARKANSAS

CITY           SKY/WX    TMP DP  RH WIND       PRES   REMARKS
JONESBORO      FAIR      16   2  54 VRB5      30.68R WCI   9
NEWPORT        FAIR      15   1  53 N10       30.69S WCI   2
WALNUT RIDGE   FAIR      16   1  51 NW12      30.68S WCI   3
BLYTHEVILLE    FAIR       6  -1  73 E7        30.69S WCI  -6
$$

ARZ022-023-033-042-044-170000-
CENTRAL ARKANSAS

CITY           SKY/WX    TMP DP  RH WIND       PRES   REMARKS
LITTLE ROCK    CLEAR     20   2  45 N13       30.69R WCI   7
N LITTLE ROCK    N/A     19   2  46 N8        30.72S WCI   9
JACKSONVILLE   CLEAR     20  -1  39 N8        30.67S WCI  10
SEARCY         FAIR      19   0  43 NW6       30.69R WCI  11
HOT SPRINGS    PTCLDY    22  -1  36 N8        30.67R WCI  12
RUSSELLVILLE   CLEAR     21  -3  35 NW8       30.68R WCI  11
CLINTON        FAIR      16  -2  45 NW12      30.69R WCI   3
$$

ARZ036-170000-
EAST ARKANSAS

CITY           SKY/WX    TMP DP  RH WIND       PRES   REMARKS
WEST MEMPHIS   FAIR      13   2  61 N7        30.68S WCI   3
$$

ARZ050-053-066-070-073-170000-
SOUTHWEST ARKANSAS

CITY           SKY/WX    TMP DP  RH WIND       PRES   REMARKS
ARKADELPHIA    FAIR      23   7  50 N12       30.69S WCI  12
CAMDEN         FAIR      25   5  42 NW7G14    30.68S WCI  17
TEXARKANA      CLEAR     24   6  46 N8        30.67S WCI  15
EL DORADO      FAIR      22  13  68 N7        30.67S WCI  13
DE QUEEN       CLEAR     24   0  35 N8        30.68S WCI  15
$$

ARZ056-057-069-170000-
SOUTHEAST ARKANSAS

CITY           SKY/WX    TMP DP  RH WIND       PRES   REMARKS
PINE BLUFF     FAIR      17   5  59 N9        30.68S WCI   6
STUTTGART      FAIR      17   4  56 N9        30.69S WCI   6
MONTICELLO     FAIR      20   5  52 NE6       30.67R WCI  12

$$






USA.gov is the U.S. government's official web portal to all federal, state and local government web resources and services.